This demonstration page uses our WeatherBlox Daily Observations layout. Learn more.

Left ArrowRight Arrow

53.62937, 11.41316

Hourly Observations for May 28, 2019

Temp ( °F °C ) Dew Point ( °F °C ) Humidity (%) Winds ( mph kmh ) Pressure ( in mb ) Visibility ( mi km ) Precip ( " mm )
6:50 am 06:50 Partly Cloudy 48 9 45 7 87 87 W 5 7 29.71 1006 30 48 N/A
7:20 am 07:20 Mostly Sunny 50 10 45 7 82 82 W 5 7 29.71 1006 7 11 N/A
7:50 am 07:50 Mostly Sunny 52 11 46 8 82 82 W 7 11 29.71 1006 7 11 N/A
8:20 am 08:20 Partly Cloudy 52 11 46 8 82 82 WNW 7 11 29.71 1006 30 48 N/A
8:50 am 08:50 Partly Cloudy 54 12 45 7 72 72 VRB 6 9 29.74 1007 30 48 N/A
9:20 am 09:20 Partly Cloudy 54 12 45 7 72 72 VRB 5 7 29.74 1007 30 48 N/A
9:50 am 09:50 Partly Cloudy 54 12 43 6 67 67 VRB 5 7 29.74 1007 30 48 N/A
10:20 am 10:20 Partly Cloudy 55 13 43 6 63 63 VRB 3 6 29.74 1007 30 48 N/A
10:50 am 10:50 Mostly Cloudy 54 12 43 6 67 67 WNW 5 7 29.74 1007 30 48 N/A
11:20 am 11:20 Partly Cloudy 55 13 41 5 59 59 VRB 5 7 29.74 1007 30 48 N/A
11:50 am 11:50 Mostly Cloudy 55 13 41 5 59 59 WNW 5 7 29.74 1007 30 48 N/A
12:20 pm 12:20 Partly Cloudy 55 13 41 5 59 59 VRB 5 7 29.77 1008 30 48 N/A
12:50 pm 12:50 Partly Cloudy 55 13 43 6 63 63 VRB 3 6 29.77 1008 30 48 N/A
1:20 pm 13:20 Partly Cloudy 57 14 41 5 55 55 VRB 6 9 29.77 1008 30 48 N/A
1:50 pm 13:50 Partly Cloudy 59 15 43 6 55 55 VRB 3 6 29.77 1008 30 48 N/A
2:20 pm 14:20 Partly Cloudy 57 14 43 6 59 59 WNW 6 9 29.77 1008 30 48 N/A
2:50 pm 14:50 Mostly Sunny 59 15 41 5 51 51 VRB 5 7 29.80 1009 30 48 N/A
3:20 pm 15:20 Partly Cloudy 59 15 39 4 48 48 WNW 5 7 29.80 1009 30 48 N/A
3:50 pm 15:50 Mostly Sunny 59 15 39 4 48 48 VRB 5 7 29.80 1009 7 11 N/A
4:20 pm 16:20 Partly Cloudy 59 15 39 4 48 48 WNW 6 9 29.80 1009 30 48 N/A
4:50 pm 16:50 Partly Cloudy 59 15 39 4 48 48 W 8 13 29.80 1009 30 48 N/A
5:20 pm 17:20 Mostly Cloudy 57 14 39 4 51 51 WNW 7 11 29.80 1009 30 48 N/A
5:50 pm 17:50 Mostly Sunny 57 14 39 4 51 51 VRB 3 6 29.83 1010 7 11 N/A
6:20 pm 18:20 Mostly Sunny 59 15 39 4 48 48 VRB 3 6 29.83 1010 30 48 N/A
6:50 pm 18:50 Mostly Sunny 57 14 41 5 55 55 VRB 2 4 29.83 1010 30 48 N/A
7:20 pm 19:20 Partly Cloudy 57 14 39 4 51 51 VRB 6 9 29.83 1010 30 48 N/A
7:50 pm 19:50 Mostly Cloudy 57 14 41 5 55 55 VRB 2 4 29.86 1011 30 48 N/A
8:20 pm 20:20 Mostly Sunny 57 14 41 5 55 55 VRB 5 7 29.86 1011 30 48 N/A
8:50 pm 20:50 Mostly Sunny 55 13 41 5 59 59 VRB 3 6 29.86 1011 30 48 N/A
9:20 pm 21:20 Mostly Sunny 54 12 39 4 58 58 WNW 5 7 29.89 1012 30 48 N/A
9:50 pm 21:50 Mostly Clear 52 11 39 4 62 62 W 5 7 29.89 1012 30 48 N/A
10:20 pm 22:20 Mostly Clear 50 10 39 4 67 67 W 3 6 29.91 1013 7 11 N/A
10:50 pm 22:50 Mostly Clear 48 9 39 4 71 71 W 3 6 29.92 1013 7 11 N/A
11:20 pm 23:20 Mostly Clear 46 8 39 4 76 76 W 3 6 29.94 1014 7 11 N/A
11:50 pm 23:50 Mostly Clear 46 8 39 4 76 76 W 3 6 29.94 1014 7 11 N/A

Powered by AerisWeather